INTELSAT 35E (IS-35E) (42818 NORAD) Tracking and Keplerian Element Data

This shows tracking and keplerian element data for the satellite.

Feedback or suggestion? Click here.




ElementValue
Catalog42818
NameINTELSAT 35E (IS-35E)
Epoch Orbit509
Epoch Day322.93492574
Epoch Year2018
RAAN246.1006
Inclination0.0146
Eccentricity0.0001796
Argument of Perigee327.6905
Mean Anonmoly146.2322
Mean Motion1.00270297
Decay Rate-2.29E-06
L11 42818U 17041A 18322.93492574 -.00000229 00000-0 00000+0 0 9998
L22 42818 0.0146 246.1006 0001796 327.6905 146.2322 1.00270297 5092

Live tracking and technical data element details for INTELSAT 35E (IS-35E) (NORAD 42818). INTELSAT 35E (IS-35E) can be tracked NOW for your location showing map with azimuth and elevation plus other details from your city location.

Track the satellite on the map from your city or location and see movement details for azimuth, elevation, latitude, longitude, range, height, and movement on the map or in text.







IsCatalogInMostPopularTable: catalog: 42818, numindb: 123
Update: records affected: 1



GetName: 42818 INTELSAT 35E (IS-35E)

Hit Count: updated at: Mon, 19 Nov 2018 11:05:25 GMT